GFSMW_850_thetae_003.txt.gz
Theta_e
316 316 316 315 316 315 315 314 313 313 313 313 312 312 312 312 311 310 309 309 308 308 307 307 307 306 306 306 306 305 305 305 303 302 303 303 303 303 301 300 299 300 299
315 315 315 315 315 314 314 313 313 314 313 313 313 313 313 312 312 312 311 309 309 308 308 307 306 306 307 306 306 305 305 304 303 302 301 301 302 302 302 301 299 298 301
315 314 314 314 314 314 314 314 313 313 313 313 312 312 312 312 312 312 312 312 310 309 307 306 306 307 307 306 306 305 305 304 304 302 301 300 299 299 300 299 298 297 297
315 315 315 314 314 314 313 313 313 313 313 312 313 313 313 313 313 312 310 311 312 310 308 307 306 307 307 306 305 304 304 304 303 301 300 299 297 295 296 299 296 296 295
315 315 314 314 314 314 313 313 313 313 313 313 313 313 312 312 311 309 309 310 311 311 308 307 306 307 307 305 304 303 303 302 301 300 298 297 298 299 296 293 296 293 293
315 315 314 314 314 314 314 314 314 313 313 313 313 312 311 310 310 308 308 307 307 308 307 307 306 307 305 304 303 300 298 297 297 298 298 298 297 294 292 292 292 292 292
315 314 314 314 314 314 313 312 312 312 311 311 310 310 309 308 307 307 306 305 305 305 306 306 305 305 304 303 298 296 296 297 298 299 299 298 299 294 292 293 293 293 293
316 315 314 314 313 312 312 311 311 311 311 309 309 307 306 306 306 306 305 304 304 305 304 303 303 302 298 295 297 298 299 299 299 299 298 293 292 291 291 292 293 293 294
314 313 312 312 312 312 311 311 310 309 307 306 305 304 304 303 304 305 303 303 303 303 302 300 298 297 297 299 299 300 298 296 294 293 292 292 292 292 291 291 291 291 293
312 312 312 312 312 311 309 308 307 306 305 304 303 303 302 301 303 303 302 302 301 300 297 297 298 299 299 297 294 293 292 292 292 292 292 292 292 291 291 291 291 291 291
312 312 312 312 312 309 307 307 306 305 304 304 304 304 301 301 301 301 301 301 298 296 298 299 298 295 292 292 292 292 292 292 292 291 290 289 288 288 288 288 289 289 290
312 312 312 311 308 307 307 305 304 303 304 305 305 303 301 300 300 299 299 297 297 298 295 294 293 291 291 290 291 291 290 289 288 288 288 288 288 288 288 289 289 288 289
311 312 312 310 308 308 307 304 304 305 305 305 304 301 300 299 298 296 296 295 295 294 294 293 292 291 290 290 290 289 289 287 287 288 287 288 288 288 288 288 288 288 289
311 311 311 308 308 308 306 304 303 304 304 302 300 298 299 296 295 294 294 294 293 295 293 292 292 291 291 290 289 288 287 287 287 287 287 288 288 287 287 287 287 287 287
311 310 308 307 308 308 306 305 304 303 301 299 298 299 295 293 294 294 294 294 295 294 293 292 292 291 290 288 287 286 286 287 287 287 287 286 286 286 286 285 285 285 285
310 309 306 307 308 307 306 305 302 301 298 297 297 298 297 295 295 295 295 294 293 293 292 291 290 289 287 287 286 287 287 286 286 285 284 284 284 284 283 283 283 283 283
309 306 305 306 306 306 303 301 300 298 297 297 296 296 296 295 294 293 292 291 291 291 289 288 288 287 286 286 286 285 285 284 284 283 283 283 283 283 283 283 283 283 283
304 302 303 303 303 303 301 299 299 298 297 297 294 292 292 292 292 292 292 290 289 288 287 287 286 286 285 285 285 284 284 283 283 282 282 282 282 282 282 282 282 282 283
302 302 302 304 303 300 299 298 297 296 294 292 292 292 291 290 289 288 288 287 287 286 286 285 285 285 284 284 284 283 282 282 283 282 282 282 282 282 282 282 282 282 282
302 303 303 301 298 298 298 298 296 293 293 292 292 291 289 288 287 286 286 286 286 285 285 285 284 284 283 282 282 282 282 281 282 282 282 283 283 282 282 282 282 283 283
302 302 299 297 298 298 297 295 293 292 292 293 290 289 287 286 286 286 286 286 285 284 284 284 283 282 281 281 281 281 281 281 282 282 283 282 282 282 282 283 283 284 284
300 297 296 297 297 296 295 294 293 293 292 290 288 286 286 286 285 285 285 284 284 283 283 282 282 281 281 281 281 282 282 282 282 283 283 282 281 281 281 282 283 283 284
296 296 296 296 296 296 294 294 293 291 290 287 286 286 286 285 285 284 284 284 283 282 281 281 281 280 280 281 281 281 282 282 282 283 282 281 281 281 281 282 282 283 283
296 296 296 296 295 295 293 292 291 290 287 287 286 286 286 285 284 284 284 283 282 281 281 280 280 279 279 280 281 280 281 282 282 282 282 281 280 280 281 282 283 284 285
297 297 297 295 292 292 291 291 290 288 287 287 287 287 286 285 285 284 283 282 281 280 280 279 279 279 279 279 280 280 281 281 281 281 281 280 280 280 281 282 283 284 285
296 296 294 293 292 292 291 291 290 288 287 287 287 287 286 286 285 284 283 281 280 280 279 278 278 278 278 278 279 280 281 281 281 281 280 279 279 279 280 281 282 283 285

GFSMW_850_thetae_006.txt.gz
Theta_e
315 315 316 316 315 315 315 314 313 313 313 313 313 313 313 312 313 312 312 312 311 311 309 308 308 307 307 306 306 306 306 305 305 305 304 304 303 302 303 303 302 302 301
315 315 315 315 314 314 314 313 313 313 313 313 312 312 312 312 312 313 312 312 312 310 310 309 309 308 307 307 306 306 306 306 305 305 304 304 303 303 303 303 303 302 300
315 314 314 314 314 314 314 313 313 313 312 312 312 311 312 313 313 312 311 311 309 309 309 310 309 307 307 307 306 307 307 306 306 305 304 302 302 303 301 301 302 302 301
314 314 315 315 314 314 313 313 313 312 312 312 313 312 312 311 311 310 309 308 308 308 308 308 309 309 307 307 306 307 307 306 305 305 303 302 301 300 300 300 301 301 300
314 314 314 314 313 313 313 312 313 313 313 313 312 311 310 309 309 308 307 307 306 306 307 307 306 307 307 306 307 307 306 306 304 303 300 298 297 297 297 296 299 300 300
314 314 314 313 313 313 313 313 313 312 311 311 311 309 307 306 306 305 304 303 304 304 304 304 304 304 306 305 306 305 304 302 301 296 296 295 294 294 294 295 297 298 300
312 312 313 313 314 313 312 311 311 311 309 308 307 307 306 304 303 302 301 301 303 303 303 302 303 304 304 303 303 302 300 298 297 298 298 298 298 298 298 297 293 292 292
314 314 313 313 312 312 311 311 309 309 308 306 305 304 303 302 301 301 300 300 303 302 302 302 302 302 300 299 298 298 298 297 298 299 299 299 299 296 292 292 292 292 291
312 312 312 312 312 312 312 310 307 306 306 304 303 303 302 301 300 301 300 301 302 301 301 300 299 298 297 297 299 299 298 299 297 294 294 295 294 292 292 291 291 291 291
312 312 312 312 312 311 308 307 306 305 304 303 302 302 302 300 299 299 300 301 301 300 298 297 298 298 298 299 299 298 293 292 292 292 292 291 290 289 289 289 288 288 288
312 312 312 312 312 309 308 307 304 302 301 301 303 303 301 299 298 299 299 299 298 297 297 297 297 297 295 292 291 292 292 291 291 290 289 288 288 287 287 287 287 288 288
311 310 310 311 311 308 308 307 305 304 304 304 303 301 299 298 299 298 297 296 295 295 294 296 294 292 292 291 290 290 290 290 289 288 287 287 287 287 287 287 288 288 288
310 310 309 311 310 307 308 308 306 306 305 303 300 299 297 298 297 295 295 294 294 294 293 295 294 292 292 291 291 290 289 288 287 286 286 286 287 287 287 287 287 287 287
310 309 310 310 306 306 307 306 306 305 302 299 298 297 296 297 294 294 294 293 293 294 294 295 293 292 292 290 290 289 287 286 286 286 286 287 287 286 286 286 286 285 285
310 309 309 306 303 304 303 301 303 301 299 298 297 296 296 296 294 293 293 293 294 294 294 293 292 292 290 289 287 286 286 286 286 285 285 285 284 284 283 283 283 283 283
308 306 302 302 302 300 300 302 301 298 298 298 297 296 295 295 295 294 293 293 292 292 291 291 290 289 288 286 286 286 286 285 285 284 284 283 283 284 283 283 283 283 283
305 305 303 300 300 301 302 300 298 297 297 297 295 292 292 292 291 291 291 291 290 289 288 288 287 286 286 285 285 285 284 284 283 283 282 283 283 283 282 283 282 282 282
303 300 300 302 302 302 299 298 298 297 296 295 294 292 292 291 290 289 288 287 287 287 286 286 285 285 285 284 284 284 283 282 282 282 282 283 283 283 283 282 282 282 282
299 300 301 303 301 297 297 298 297 295 293 292 292 291 290 289 288 286 286 286 286 286 285 285 284 284 284 283 282 281 281 281 281 282 283 282 282 282 282 281 282 282 282
299 301 302 298 296 296 298 297 295 293 292 292 292 290 289 287 286 286 286 285 285 285 284 284 283 282 282 281 281 281 281 281 281 282 282 282 283 282 282 282 282 282 283
301 301 297 296 295 297 296 295 294 293 292 292 290 288 286 286 285 285 285 284 284 284 283 282 282 281 281 280 280 280 280 280 281 281 282 282 282 282 281 281 281 282 282
301 300 296 295 296 296 296 294 293 292 291 290 288 286 286 286 285 285 284 284 284 284 282 282 282 281 280 279 280 280 280 281 281 282 282 282 282 281 280 280 281 281 282
301 299 298 295 296 295 293 292 292 292 290 289 287 286 287 286 286 285 285 284 284 283 282 281 280 280 279 279 280 280 280 281 281 282 282 282 281 280 280 281 282 283 283
300 299 298 296 294 292 292 292 292 291 290 287 287 287 287 287 286 285 285 284 283 281 280 279 279 278 278 278 279 279 279 280 281 281 281 281 280 280 280 281 282 283 284
298 298 297 295 293 292 293 292 291 290 288 287 287 287 287 287 286 285 285 283 282 281 280 279 278 277 277 278 278 279 279 280 280 280 281 280 280 280 280 281 282 283 284
296 297 296 295 294 294 292 291 290 290 289 288 287 287 287 287 286 284 284 282 281 280 279 278 277 277 277 277 278 279 279 279 280 280 280 279 279 279 278 279 281 282 283

GFSMW_850_thetae_009.txt.gz
Theta_e
315 315 315 315 315 315 317 316 314 313 313 313 312 312 312 312 312 312 312 312 312 312 311 310 310 310 308 308 307 308 307 306 306 306 305 305 305 304 304 302 302 302 303
315 315 315 315 315 314 314 313 313 312 311 311 311 311 311 311 312 313 313 311 311 310 309 309 309 309 309 310 308 308 308 307 306 306 306 306 306 304 304 303 302 301 302
314 314 314 314 314 313 313 312 312 311 311 311 311 312 312 312 312 312 310 309 308 307 307 307 307 307 307 308 310 308 307 309 307 307 306 306 306 305 303 302 301 300 301
314 313 313 313 313 312 312 312 312 312 312 312 311 311 310 309 309 307 306 305 304 304 304 303 304 305 305 305 306 307 307 308 308 306 306 305 305 304 304 302 300 299 299
312 312 312 312 312 311 312 312 312 311 311 311 310 309 308 307 305 304 303 302 301 301 300 301 301 302 302 303 303 305 306 305 307 306 305 304 303 301 299 300 300 297 297
312 313 312 313 313 313 312 312 311 311 311 310 309 307 305 304 303 302 301 300 300 300 300 300 301 301 302 302 303 304 303 302 302 303 301 302 299 298 296 296 296 297 297
313 312 312 313 312 312 312 312 312 311 310 309 307 305 303 302 301 300 299 298 298 299 299 302 301 301 301 302 301 300 298 298 298 298 297 298 297 296 296 297 296 297 297
312 312 312 312 312 312 312 311 311 310 308 306 304 303 301 301 300 299 298 298 298 299 301 301 300 300 300 298 297 297 297 297 298 297 298 298 296 296 296 295 295 294 295
312 312 312 311 311 311 312 311 309 307 304 301 300 301 302 302 300 298 297 297 299 300 299 298 298 298 298 298 298 298 298 297 296 296 294 291 292 291 291 291 291 292 293
312 311 310 310 311 311 310 308 307 306 304 304 304 304 303 300 298 297 297 298 299 298 297 298 295 295 294 295 294 292 291 291 291 291 290 290 289 289 288 288 289 290 290
311 310 310 309 310 310 309 307 307 308 306 305 305 303 300 298 297 296 297 297 297 297 294 294 294 295 296 294 292 291 290 290 290 289 289 288 288 287 287 288 289 289 289
311 310 309 309 310 310 308 305 307 305 304 304 302 300 298 297 296 296 295 296 295 292 293 293 294 295 294 293 292 291 290 290 289 288 287 286 286 286 286 287 288 288 289
311 311 309 309 309 308 304 303 301 301 302 300 298 297 297 296 296 294 294 294 293 293 294 294 294 294 293 292 291 290 289 288 287 286 286 286 286 286 287 287 287 287 287
311 310 309 308 306 302 302 301 300 302 301 298 297 297 297 295 295 294 293 293 294 294 294 294 292 291 292 292 291 289 288 287 286 286 286 286 286 285 285 284 285 285 285
310 308 306 305 302 300 300 301 302 300 298 296 297 296 296 295 295 293 293 292 291 291 291 290 290 290 289 288 287 287 286 286 285 285 285 284 284 283 283 283 284 285 285
307 304 300 300 299 301 302 301 298 297 297 296 296 295 294 292 291 290 290 290 289 288 288 288 288 287 286 286 285 285 285 285 284 284 283 283 282 283 283 284 283 283 283
303 302 299 298 300 302 300 296 296 298 297 294 294 292 291 291 290 289 289 287 286 286 286 286 286 285 285 285 284 284 283 283 282 282 282 282 282 282 282 282 282 283 282
301 299 298 300 302 298 296 295 297 296 295 293 292 292 292 290 289 287 286 286 285 285 285 285 284 284 284 283 283 282 282 281 281 281 282 282 282 282 282 282 282 282 283
299 298 300 301 297 295 295 296 296 295 293 292 292 292 290 288 286 286 285 285 285 285 284 284 283 283 282 282 281 281 280 281 280 281 281 281 281 282 282 282 282 282 283
298 299 301 299 297 295 295 296 295 295 293 292 292 291 288 286 286 286 285 285 285 284 284 284 283 282 281 281 280 279 280 280 280 281 281 281 282 282 282 282 282 282 282
299 300 300 299 298 296 295 294 295 294 294 291 291 290 287 286 286 286 286 285 285 284 284 283 282 281 280 280 279 279 279 280 280 281 281 282 282 282 281 281 281 281 280
298 300 300 299 298 297 294 292 291 291 291 291 290 288 287 286 287 287 286 285 285 284 283 282 281 280 279 279 279 279 279 279 280 281 282 282 281 281 281 280 281 281 282
296 297 299 297 297 297 293 291 290 291 292 291 290 287 287 287 287 287 286 285 284 283 281 281 280 279 278 278 278 279 279 279 280 281 281 281 281 280 280 281 281 282 283
295 295 295 296 296 296 293 292 292 292 291 290 289 287 287 287 287 286 285 284 282 281 280 280 279 278 278 278 278 278 278 279 280 280 280 280 280 280 280 280 281 282 282
295 294 294 296 296 295 294 293 292 292 290 289 288 288 287 287 287 286 284 283 282 281 279 278 278 277 277 277 277 278 278 279 279 279 280 280 280 279 279 278 280 281 282
294 292 292 294 293 293 292 290 290 289 289 289 288 287 287 287 286 284 283 282 281 280 278 278 277 276 276 276 277 278 278 278 279 279 279 279 279 279 278 277 278 280 281

GFSMW_850_thetae_012.txt.gz
Theta_e
318 316 315 315 314 316 323 322 320 316 313 312 312 313 313 313 313 313 312 312 311 310 310 309 310 309 312 313 311 313 314 314 312 311 310 309 310 310 308 307 307 306 306
316 316 315 315 315 315 315 316 315 313 312 311 311 311 311 312 312 312 312 311 310 308 306 306 306 308 309 310 311 312 313 314 313 312 311 310 310 310 309 308 307 306 306
316 315 315 314 314 314 314 313 312 311 311 311 312 312 312 311 311 310 309 308 306 304 302 302 302 301 304 307 308 310 311 311 312 312 311 311 310 309 309 308 307 306 305
315 314 315 313 312 312 312 312 312 312 311 311 310 310 310 310 309 308 307 305 304 302 301 300 299 300 301 304 306 307 308 309 310 311 312 311 310 310 309 308 307 306 305
315 315 314 314 313 312 312 311 312 311 311 310 310 309 309 308 308 307 306 304 303 302 302 301 298 299 300 302 301 302 305 307 308 308 309 310 309 309 307 308 307 305 303
314 314 314 314 314 313 312 312 312 311 311 310 308 307 306 306 306 305 303 303 302 302 302 301 298 300 301 302 302 302 302 303 303 303 303 303 302 303 303 305 306 306 303
315 315 314 314 314 313 312 312 312 311 310 309 307 305 305 304 304 304 303 302 301 301 301 300 302 302 301 301 301 300 300 299 299 299 299 299 299 299 299 299 299 300 301
314 314 314 313 313 313 312 312 311 310 309 308 307 303 300 304 303 302 300 299 299 299 299 301 301 301 301 301 300 301 298 298 298 296 296 296 296 295 295 294 294 295 296
314 314 313 313 313 312 312 311 311 311 310 308 305 303 304 304 302 298 297 297 297 299 300 301 300 299 299 298 297 296 296 294 293 292 291 290 290 290 289 290 291 292 293
314 314 313 312 312 312 312 311 310 309 308 307 304 304 303 300 298 297 297 298 299 300 300 299 298 297 296 295 296 295 294 294 294 294 294 293 293 292 292 292 292 292 292
314 313 312 311 311 311 310 309 309 307 305 304 303 302 300 298 297 297 297 297 297 296 297 296 296 295 295 295 294 293 294 293 293 292 292 291 290 290 290 290 291 291 291
313 313 312 311 311 309 308 306 306 304 303 302 301 300 298 297 297 297 297 297 297 296 296 295 295 294 294 294 293 292 292 291 291 291 290 290 289 289 289 290 290 290 290
312 312 312 311 309 307 305 304 303 303 302 301 299 299 298 298 297 297 296 296 295 295 295 294 293 293 292 292 292 292 291 291 290 290 289 289 289 289 288 288 288 288 288
312 312 310 308 305 304 302 303 303 302 300 299 299 298 297 297 296 295 294 294 294 294 293 293 292 291 290 289 289 289 289 289 289 288 288 288 288 287 287 287 287 287 287
310 308 307 305 302 301 303 303 301 299 299 299 298 297 295 295 294 293 292 292 291 290 289 289 289 288 288 288 286 287 287 288 287 287 287 287 286 285 284 284 285 285 286
307 305 301 301 301 302 302 300 299 298 298 297 296 295 294 293 292 291 290 289 288 288 288 288 288 288 287 286 285 284 285 285 286 286 286 286 285 285 284 283 283 283 285
303 301 300 300 301 302 300 299 298 297 297 296 295 294 294 292 291 290 288 288 288 288 288 287 287 287 286 285 284 283 283 284 285 285 285 284 284 284 284 284 284 283 283
301 300 300 300 301 301 299 298 297 296 296 295 294 294 292 291 290 288 288 288 287 287 287 287 286 285 285 284 283 282 282 284 284 284 284 284 284 284 283 283 283 283 284
301 300 300 300 301 301 299 298 297 296 296 295 294 293 291 290 288 288 288 287 287 287 286 286 285 285 284 283 282 281 281 282 283 282 282 283 283 283 283 282 283 283 284
300 299 299 299 300 300 299 298 297 296 294 294 293 292 291 289 288 288 288 287 287 286 286 285 284 283 283 281 280 279 280 280 281 282 282 282 282 282 282 282 282 282 283
299 298 298 298 299 298 298 297 296 295 293 293 292 291 290 288 288 288 288 287 286 286 285 283 282 282 282 280 280 279 279 280 280 281 282 283 283 283 282 282 281 281 281
298 298 297 297 297 297 297 297 295 294 294 294 293 291 290 288 288 288 288 287 286 285 284 283 283 282 281 281 280 279 279 279 280 280 282 283 282 281 281 281 280 281 282
297 297 296 296 295 295 296 296 295 295 293 292 291 290 289 288 288 288 287 287 286 284 283 283 282 282 281 281 279 279 279 279 279 281 281 281 280 280 280 279 280 281 281
296 295 295 294 294 294 295 295 294 293 292 292 290 290 289 289 288 287 287 286 284 283 282 282 281 281 280 279 278 278 279 279 279 280 280 280 280 279 280 279 280 280 281
295 294 293 293 292 292 292 293 290 290 290 289 289 289 288 288 287 287 285 284 283 281 280 280 279 279 278 278 277 277 278 278 278 279 279 279 279 279 280 279 279 280 280
294 293 293 292 292 291 291 289 289 289 288 287 288 288 287 287 286 285 285 284 282 280 279 278 277 276 276 276 276 277 278 278 279 278 278 278 278 278 279 279 278 279 279

GFSMW_850_thetae_015.txt.gz
Theta_e
324 322 320 320 321 324 326 327 326 324 319 317 316 316 316 316 315 316 315 315 314 312 311 311 311 311 311 311 311 312 313 313 314 315 315 314 313 312 311 311 311 310 309
320 319 320 320 320 320 319 318 317 316 315 315 315 315 314 315 315 315 314 312 311 310 309 309 309 308 308 307 306 307 310 311 312 313 314 315 313 313 313 311 311 310 309
318 318 318 319 319 318 317 316 316 316 314 312 314 314 314 314 314 313 313 312 311 309 308 307 307 307 307 307 307 307 308 309 309 310 311 312 313 313 312 313 312 311 310
318 318 318 318 318 318 317 316 315 315 314 312 313 313 313 313 313 312 311 310 308 307 306 305 305 305 306 305 306 307 307 308 308 308 308 310 312 312 312 311 312 311 310
318 318 318 317 317 317 317 316 315 315 314 314 312 312 312 312 311 310 309 307 306 305 304 304 304 305 304 305 306 306 306 306 307 307 308 308 309 309 308 310 311 311 309
318 317 317 317 317 317 317 316 315 314 314 313 312 311 310 310 309 308 307 306 305 304 303 303 303 303 305 305 305 304 303 301 301 302 302 303 302 303 302 303 306 307 308
319 318 317 317 316 316 316 315 315 315 313 312 311 311 309 309 308 306 305 303 302 301 301 302 303 303 303 302 302 301 301 299 299 298 299 299 299 298 298 298 298 299 303
317 317 316 316 316 315 315 315 314 314 313 313 312 310 309 307 305 304 302 301 300 300 301 302 303 301 301 301 300 300 299 298 297 296 296 296 295 294 293 294 295 295 296
316 316 316 315 315 315 314 314 313 312 311 311 310 308 306 305 303 301 300 299 300 300 301 301 300 299 299 298 298 298 296 295 295 295 294 294 294 294 293 292 292 292 294
316 316 315 315 314 314 313 312 311 311 310 308 307 306 305 303 300 299 299 299 299 299 298 298 298 297 297 297 296 295 295 295 295 295 295 295 294 294 294 294 293 293 293
316 315 314 314 313 313 312 311 309 308 307 306 304 303 302 301 299 299 299 298 298 297 297 297 297 296 295 295 294 295 295 294 294 293 293 293 293 292 291 291 292 293 292
315 314 314 313 313 312 310 308 307 305 304 303 302 301 300 300 299 299 297 297 296 297 297 295 295 294 294 294 293 293 293 293 293 293 293 292 292 291 291 291 291 291 291
314 313 313 312 311 310 307 305 304 304 303 301 300 299 299 299 298 297 295 295 295 295 295 295 294 293 293 292 291 291 291 291 291 291 291 290 290 290 290 290 290 290 290
313 312 311 310 309 306 304 304 303 303 301 299 299 299 299 297 296 296 295 294 293 292 291 291 290 290 290 290 290 290 289 289 289 289 289 289 289 289 289 289 289 288 288
312 310 308 306 304 303 302 303 302 300 300 299 299 298 297 296 295 295 293 292 291 290 290 290 289 289 289 289 288 287 286 286 287 287 288 288 288 288 287 286 286 286 286
309 307 304 303 302 302 302 302 301 300 299 298 297 297 296 295 295 293 292 290 290 289 289 289 289 289 288 288 287 286 285 284 285 286 287 287 287 287 286 285 285 284 284
306 306 303 303 302 301 302 302 300 299 298 297 297 296 296 295 293 292 290 290 289 289 289 289 289 288 287 287 286 285 284 283 284 286 286 286 286 286 286 286 286 285 284
305 304 303 302 301 300 301 301 300 299 298 298 297 296 295 294 293 292 290 290 289 289 289 288 288 287 287 286 285 284 283 283 284 284 285 285 285 285 285 284 284 284 284
304 302 301 300 299 300 300 300 300 299 298 297 296 295 295 294 292 291 290 289 289 289 288 288 287 286 286 284 284 282 281 282 282 282 283 283 283 283 283 283 283 284 284
301 300 300 299 299 298 298 298 297 297 297 297 295 294 294 293 292 290 290 289 289 288 288 287 286 284 284 284 282 281 281 280 281 281 282 282 283 283 283 283 283 283 283
300 300 299 299 298 297 296 296 296 296 296 296 295 295 294 293 291 290 290 289 289 288 287 286 285 284 284 283 282 281 280 280 280 281 281 282 284 283 283 283 282 282 281
300 299 298 297 297 295 295 295 295 295 296 296 295 294 293 292 290 290 289 289 288 288 286 285 284 284 283 283 282 281 279 279 280 280 281 282 282 282 282 281 281 280 281
298 297 296 296 295 294 294 293 294 294 294 293 292 293 292 291 290 290 289 288 287 286 285 284 284 283 282 282 281 280 279 279 279 280 280 281 281 281 281 280 280 280 282
296 295 295 295 294 294 293 293 293 292 292 292 292 291 291 290 289 289 288 287 286 285 284 283 282 281 281 280 279 278 278 278 279 279 280 280 280 280 281 281 281 281 281
295 295 295 294 294 294 293 292 292 291 290 290 289 289 290 289 289 288 287 286 285 284 282 281 279 279 278 278 277 277 277 277 278 279 280 279 279 279 280 280 280 280 281
294 294 294 294 294 293 292 291 291 289 288 288 289 289 289 288 287 287 286 285 284 283 282 281 280 278 276 276 276 276 277 278 278 279 278 278 278 278 279 279 279 279 280

GFSMW_850_thetae_018.txt.gz
Theta_e
324 323 322 321 322 326 328 330 329 327 322 319 317 317 316 316 316 316 316 316 314 313 312 311 310 309 309 309 309 309 307 306 308 311 313 313 313 316 315 313 313 312 311
321 322 322 321 322 322 322 321 319 317 316 316 316 315 315 315 315 314 315 314 313 312 311 310 308 307 306 306 305 307 309 310 310 311 312 313 312 313 313 313 314 313 312
320 320 320 320 319 318 318 317 317 316 315 313 315 315 313 314 314 314 314 313 312 311 308 307 306 305 305 305 305 302 303 307 309 309 310 311 311 311 311 312 313 313 313
319 319 320 320 319 318 317 316 316 316 315 314 313 314 313 314 313 312 311 311 310 307 306 306 304 304 304 303 302 306 306 306 307 307 307 308 309 308 309 309 310 310 311
319 319 319 319 318 318 318 317 316 316 315 314 314 313 312 311 311 310 309 308 306 306 305 302 302 302 301 303 305 306 306 306 306 305 303 302 302 303 304 305 306 307 309
319 319 318 318 318 318 317 317 316 316 315 314 313 312 311 310 309 308 307 306 305 301 300 300 300 302 304 304 304 303 302 301 300 300 299 298 298 298 299 299 301 301 303
319 319 318 318 317 317 316 316 316 315 314 314 313 312 311 310 308 306 305 303 300 300 299 301 302 303 303 301 300 300 300 300 299 298 296 296 296 297 296 296 296 295 297
318 318 317 316 316 316 316 315 315 314 312 312 311 311 309 307 306 305 303 300 299 299 299 300 298 299 300 300 299 299 298 297 296 295 295 295 294 294 293 294 294 293 294
317 317 317 316 316 315 314 314 313 312 311 310 308 307 307 305 304 303 300 299 299 299 298 298 298 298 298 298 297 296 296 295 295 295 296 295 294 294 294 294 293 293 292
317 317 316 315 315 314 314 313 311 310 309 308 306 305 304 303 302 300 300 299 299 297 296 297 298 297 297 296 295 295 294 294 295 295 295 294 294 293 293 293 292 293 293
316 316 315 314 314 313 312 311 310 308 306 305 304 303 301 300 300 300 300 299 297 295 295 296 295 295 294 293 292 293 292 292 292 292 292 293 293 293 293 292 292 292 293
315 314 314 314 312 311 311 309 307 305 305 304 303 301 300 300 300 299 297 296 295 296 295 294 294 293 293 293 292 291 291 291 291 291 291 291 291 291 291 290 290 291 291
314 314 313 312 310 310 309 306 304 304 304 302 300 300 299 299 299 297 296 296 295 294 293 292 291 290 290 290 290 290 290 290 290 288 289 289 289 289 289 289 289 289 289
313 312 311 310 308 306 305 303 303 304 302 301 300 299 299 298 298 296 295 295 294 292 291 290 290 290 290 290 289 289 289 288 287 286 286 288 288 288 288 289 289 289 289
313 311 309 307 305 304 303 303 302 303 301 300 299 298 298 297 297 296 295 294 292 290 290 290 290 289 289 289 288 288 287 287 286 286 285 286 286 287 287 287 287 287 286
310 308 307 306 304 304 303 302 301 302 302 300 300 299 298 297 296 295 294 293 291 290 290 289 289 289 289 288 288 287 287 286 285 285 284 285 286 286 287 287 286 286 285
307 307 305 305 303 301 300 300 300 300 301 301 300 299 298 297 296 295 293 292 291 290 289 289 289 288 288 287 287 286 286 284 283 282 283 284 284 285 285 285 285 286 285
306 305 304 302 301 300 300 299 298 298 298 298 298 298 297 296 296 295 293 291 290 290 289 289 288 288 287 286 285 284 283 282 281 281 281 282 282 283 283 283 283 283 283
305 303 301 300 300 300 299 298 297 296 296 297 297 297 297 295 295 294 293 290 290 289 289 289 288 288 286 284 284 284 283 282 281 280 281 281 281 281 282 283 283 283 283
301 300 300 300 299 298 297 296 295 295 295 296 296 296 296 295 294 294 291 290 290 289 289 288 288 286 285 284 284 283 282 281 281 280 280 281 281 282 283 283 283 283 283
300 300 299 298 297 297 296 295 294 294 294 294 295 294 293 293 293 291 290 290 290 289 288 288 286 284 283 283 283 282 281 280 279 279 280 280 281 282 281 281 282 282 282
299 298 297 296 296 295 295 294 294 294 294 293 292 292 292 293 292 291 290 290 289 288 287 286 284 283 283 282 281 281 280 279 279 279 279 280 280 281 281 281 281 281 281
297 296 296 295 295 295 295 294 294 293 292 291 291 291 291 291 291 290 289 288 288 287 286 284 283 282 281 280 280 279 278 278 278 278 279 280 281 280 280 281 281 281 282
296 295 295 295 295 295 294 294 293 292 291 290 290 290 290 290 290 289 288 288 287 286 285 283 282 281 280 278 278 277 277 277 278 279 280 280 280 279 280 281 281 281 281
296 295 295 294 294 294 294 293 292 291 290 289 289 289 290 289 289 288 288 287 286 285 284 283 282 280 279 278 277 277 277 277 278 279 279 279 278 279 279 279 280 280 280
295 294 294 294 294 294 293 292 291 290 288 288 287 287 287 287 287 287 286 285 284 284 283 283 282 281 279 278 276 276 276 277 278 278 278 278 278 278 278 278 278 279 279

GFSMW_850_thetae_021.txt.gz
Theta_e
322 322 322 322 322 324 322 326 329 328 325 319 318 317 317 316 316 315 314 315 314 314 313 312 310 308 308 306 305 305 304 303 303 306 307 306 308 309 311 312 313 313 314
321 322 322 323 324 325 326 327 325 320 317 316 316 315 315 314 315 315 314 313 312 312 311 310 309 307 306 305 304 304 304 302 303 307 308 309 308 307 309 309 309 311 312
320 320 319 319 318 318 317 317 316 315 315 314 315 315 314 314 314 314 314 313 312 310 310 309 306 305 303 302 302 301 301 305 306 306 307 307 307 305 306 306 307 306 307
320 320 319 318 317 317 316 316 316 316 315 315 314 314 313 312 311 311 310 310 309 309 308 306 304 300 298 298 300 304 305 305 305 304 304 304 300 299 300 301 302 305 307
319 319 319 318 318 318 317 316 316 316 315 314 314 313 312 311 310 310 309 309 308 306 304 299 298 299 301 303 304 304 302 301 300 299 299 299 299 298 297 297 298 298 300
319 318 318 318 318 317 316 316 316 316 314 313 313 313 312 311 311 310 309 307 305 300 298 299 300 300 300 300 300 300 299 298 299 299 299 297 296 295 295 295 296 296 296
318 318 318 318 317 316 316 316 316 316 314 313 312 311 311 310 309 308 305 303 299 298 298 297 297 298 298 297 296 298 297 298 296 295 295 295 295 294 294 295 294 294 294
318 318 317 316 316 316 315 315 314 314 313 311 310 309 308 307 305 303 302 300 299 299 299 297 296 297 297 297 297 297 296 295 294 294 295 295 295 294 294 293 293 293 292
317 317 316 316 315 314 314 314 313 311 310 309 308 306 305 303 302 301 300 300 299 299 297 294 295 296 296 295 294 293 293 293 293 294 294 295 295 294 294 294 293 293 292
315 315 314 314 314 313 313 312 311 310 308 307 306 305 304 303 300 300 300 300 300 298 294 294 294 294 294 293 293 292 292 291 291 291 291 291 291 292 293 293 293 293 293
314 314 314 314 313 312 311 310 309 307 305 305 305 304 303 299 299 299 299 299 299 294 295 294 293 292 291 290 290 290 290 290 291 291 291 290 290 291 291 291 291 291 291
314 313 313 312 311 310 309 308 306 304 304 303 304 303 301 299 299 299 299 298 297 294 294 293 292 291 290 290 290 290 289 289 290 290 290 288 287 288 289 289 289 289 289
313 313 312 311 309 308 305 304 303 303 302 303 303 301 300 299 299 298 298 297 296 294 294 292 290 290 290 289 289 289 289 289 288 288 287 287 286 285 287 287 288 288 289
312 311 310 307 306 305 304 303 303 302 301 301 302 301 301 299 298 298 297 296 295 294 292 290 290 289 289 289 289 289 288 288 287 287 286 286 285 285 285 286 287 287 287
311 309 307 306 305 304 303 302 301 300 300 301 301 301 300 300 298 297 298 296 294 293 290 290 290 289 289 289 288 288 288 287 286 286 285 284 283 285 285 286 286 287 287
308 307 306 305 304 302 301 301 300 299 298 297 296 297 299 299 298 297 296 295 293 291 290 290 289 289 289 288 288 288 286 285 284 283 282 281 282 283 284 284 284 285 286
306 304 304 303 302 301 300 299 298 298 296 296 295 297 296 296 296 296 296 294 292 290 290 289 289 289 288 288 287 286 284 284 284 282 281 280 280 281 281 282 283 283 283
305 304 303 300 300 299 299 298 297 296 295 294 294 295 294 295 294 294 295 293 292 290 290 289 289 289 288 287 285 284 284 283 283 282 281 280 280 281 281 281 282 282 283
302 300 300 299 298 297 297 296 295 295 294 294 294 294 293 292 292 293 294 293 289 290 290 289 288 287 286 284 284 283 283 282 281 281 280 279 280 280 281 282 282 282 283
300 299 298 297 296 296 295 295 295 294 294 294 293 293 291 291 292 292 290 290 290 289 289 288 288 286 284 283 283 282 281 281 280 279 279 279 280 281 281 281 281 281 282
299 297 296 296 295 295 295 295 294 294 294 294 293 291 290 291 292 292 291 290 290 289 288 288 286 284 283 282 281 280 280 279 279 278 279 279 279 280 281 281 281 281 281
297 296 296 295 295 295 295 295 294 294 294 293 291 290 290 290 291 291 290 289 288 288 288 287 285 283 281 280 279 278 278 278 277 278 279 280 280 280 280 281 281 282 281
296 296 296 295 295 294 294 294 294 293 293 291 290 289 289 289 290 290 289 288 288 287 287 285 284 282 281 280 279 278 277 277 278 279 279 279 279 279 280 280 281 281 282
296 295 294 294 294 294 294 293 293 292 291 290 289 288 289 289 289 289 288 287 287 287 285 284 283 282 281 279 278 277 277 277 278 278 279 278 278 279 279 279 280 280 280
294 294 294 294 294 294 294 293 292 291 291 290 289 287 287 287 287 287 286 287 286 285 284 283 283 281 281 279 278 277 277 277 278 278 278 278 278 278 278 278 279 279 279
293 293 293 293 294 294 293 292 291 291 291 290 288 286 285 285 286 286 285 285 284 283 283 283 282 281 281 279 278 277 277 277 277 277 277 276 276 276 276 277 278 278 278

GFSMW_850_thetae_024.txt.gz
Theta_e
324 325 326 328 330 330 330 328 327 324 323 321 320 318 316 315 314 315 314 313 313 313 312 312 311 309 308 306 305 305 302 301 300 300 301 302 302 305 305 305 309 309 308
323 323 322 323 323 320 318 318 318 318 316 316 315 315 315 314 314 314 314 313 312 312 311 309 309 307 306 305 304 300 298 299 302 305 304 305 303 304 304 305 305 305 306
319 319 319 319 319 318 316 315 315 315 315 314 314 314 314 313 313 313 313 311 310 310 309 307 306 304 301 298 298 300 302 303 302 302 301 301 301 299 299 299 300 302 303
319 318 317 316 316 315 315 315 315 315 315 315 315 314 313 313 312 312 311 310 309 308 306 303 297 296 295 298 300 302 300 300 300 298 298 298 298 298 298 298 297 297 297
318 318 317 317 317 317 317 316 315 315 314 315 314 313 313 312 312 311 310 309 308 305 299 297 296 296 295 295 297 297 295 298 298 298 297 296 296 296 295 295 295 295 295
318 318 317 318 317 317 316 316 316 315 315 315 314 313 312 311 311 310 308 307 305 299 297 298 298 297 294 296 296 296 297 297 296 295 295 294 295 295 294 294 294 294 293
318 318 317 317 317 316 316 316 315 315 314 313 312 311 310 309 307 305 304 303 299 298 298 299 297 294 294 295 295 294 293 293 293 293 294 294 295 294 294 293 293 293 293
318 318 318 317 316 315 314 314 314 313 313 312 311 309 308 307 305 303 302 299 298 299 299 299 294 293 293 294 293 293 292 292 292 291 292 292 292 294 293 293 293 293 292
316 315 315 314 314 313 313 313 312 311 310 309 308 307 306 305 303 302 299 298 298 299 299 296 293 293 293 293 291 291 290 290 290 290 291 291 291 291 291 291 291 291 293
315 315 314 314 313 312 311 310 310 308 307 306 305 304 303 303 303 301 299 299 298 299 299 295 293 293 292 292 290 290 290 290 289 289 290 291 289 288 288 289 290 291 291
314 314 313 312 311 311 309 308 307 305 304 303 302 302 302 302 301 300 299 299 299 298 297 294 293 293 292 290 290 289 289 289 289 289 290 290 289 289 288 286 287 289 289
313 312 311 311 310 307 305 304 303 303 302 302 301 301 302 301 301 300 300 298 298 298 297 296 293 292 290 290 289 289 288 288 288 288 288 287 287 287 286 285 285 286 288
312 312 311 310 307 305 304 303 303 302 300 300 300 301 300 300 300 300 299 298 297 295 295 293 293 290 290 289 289 288 288 288 288 288 287 286 286 286 285 285 285 285 286
311 311 310 306 305 304 303 303 302 301 300 300 299 299 297 296 299 299 298 297 297 297 293 292 291 290 289 289 288 288 288 288 287 287 285 284 283 282 283 284 285 285 286
310 307 304 304 304 303 301 301 300 300 299 298 297 296 295 295 294 295 295 294 294 295 293 290 290 289 289 289 288 288 288 287 286 284 284 283 282 281 281 283 284 284 284
306 303 303 303 301 303 300 300 299 298 297 297 295 294 294 293 293 293 292 292 294 295 290 290 289 289 289 288 288 288 287 285 284 283 283 282 281 281 280 281 281 282 283
304 303 302 300 300 299 299 298 297 296 295 295 294 294 294 293 293 291 291 293 293 291 290 289 289 289 288 288 287 285 284 283 283 282 282 281 280 280 280 280 281 281 281
302 300 300 299 298 297 296 295 295 295 294 294 294 294 293 293 291 291 291 293 292 290 289 289 289 288 287 286 284 283 283 282 282 281 280 280 279 279 279 280 281 282 282
300 299 298 297 296 295 295 295 295 294 294 294 294 294 293 291 290 291 290 290 289 289 289 289 288 287 286 284 282 282 281 280 280 279 279 279 279 279 280 280 281 281 281
299 298 297 296 296 295 295 294 295 294 294 294 293 293 291 290 291 291 291 291 290 289 289 288 287 286 284 282 281 280 279 278 278 278 279 279 279 280 280 280 281 281 281
298 297 296 296 295 295 295 294 294 294 293 293 292 290 290 289 290 290 290 289 289 288 287 287 286 284 283 281 280 280 278 277 277 278 279 279 280 280 280 280 281 281 281
297 296 296 295 295 294 294 294 294 293 293 292 291 290 289 289 289 289 289 288 288 287 287 286 284 283 282 281 280 279 277 277 278 278 279 279 279 279 279 280 280 281 281
296 295 295 294 294 294 293 293 293 293 292 291 290 290 289 288 289 289 289 288 287 286 286 285 284 283 282 280 279 278 277 278 278 278 278 278 278 278 279 279 280 280 280
295 294 293 293 292 293 293 293 293 292 291 291 290 290 288 287 287 287 287 286 286 285 284 284 283 282 281 280 279 278 277 277 278 277 278 278 278 278 278 278 279 279 279
293 292 291 291 291 291 291 291 291 291 291 291 290 289 287 285 285 286 285 285 285 284 283 283 282 282 281 280 279 278 277 277 277 277 277 277 277 277 277 278 278 278 278
291 290 290 290 290 290 290 290 290 290 290 289 289 288 286 285 285 285 284 284 284 283 283 283 282 282 281 280 278 278 277 276 276 276 276 276 276 275 276 276 277 277 277

GFSMW_850_thetae_027.txt.gz
Theta_e
328 327 327 328 327 328 329 329 327 327 324 323 322 321 320 316 315 314 314 314 313 312 311 310 309 309 308 307 305 303 301 298 298 298 299 298 302 301 300 303 304 303 304
324 327 329 330 330 329 326 324 323 323 320 318 317 315 314 314 313 313 313 312 311 311 311 310 309 306 304 300 296 295 295 297 299 300 299 299 298 299 298 296 297 297 297
320 321 322 322 321 319 317 316 316 315 315 314 314 314 314 314 313 311 311 311 311 310 310 307 301 297 296 295 293 294 296 297 296 298 298 298 298 296 297 296 296 296 296
319 319 318 317 316 315 315 315 315 314 314 313 313 312 312 312 312 312 311 311 310 309 306 301 296 296 295 294 293 294 295 296 295 296 296 296 295 296 295 295 294 295 295
317 317 316 316 316 316 316 316 315 315 315 315 314 314 313 312 311 311 310 308 306 303 298 296 296 295 293 292 292 293 294 294 295 294 294 294 294 294 294 294 294 293 294
317 317 317 317 316 316 316 316 315 315 315 314 314 313 312 311 310 308 306 301 300 298 297 296 295 295 293 292 292 293 293 293 292 292 292 292 294 293 293 294 294 293 293
317 317 317 317 316 316 316 315 315 314 313 313 312 311 310 308 306 304 301 302 301 300 298 297 298 297 293 292 292 292 292 291 291 291 290 290 291 292 292 291 291 291 292
317 317 317 317 316 315 314 314 313 312 311 310 309 308 307 305 302 301 301 301 300 300 299 298 298 297 293 292 292 292 291 290 290 290 290 290 290 291 291 291 291 290 291
317 317 317 316 315 314 313 312 311 310 309 308 306 304 303 302 301 301 301 300 300 299 299 299 298 294 293 292 292 291 290 289 289 289 289 289 289 290 289 288 287 287 289
315 314 314 314 313 312 311 310 308 307 306 304 302 302 301 302 301 301 300 300 299 299 299 298 295 294 293 292 291 290 289 289 289 288 288 289 289 289 289 288 287 286 285
313 313 312 312 311 311 308 305 305 303 302 302 301 300 301 301 300 300 299 300 299 299 298 296 294 293 292 292 290 289 288 288 287 288 288 288 287 287 286 286 286 286 285
312 312 312 311 310 307 305 303 303 302 302 301 300 300 300 299 297 296 297 298 298 297 296 296 296 294 290 290 290 289 288 288 288 288 288 287 287 286 285 284 284 284 285
312 310 309 308 306 304 303 303 302 302 301 300 299 299 297 296 294 293 292 292 293 295 294 293 295 291 290 290 289 289 288 288 288 287 287 286 285 284 283 282 282 283 284
310 309 307 304 304 304 302 301 301 300 299 298 297 297 295 294 294 293 293 293 292 293 294 294 294 290 290 289 289 288 288 288 287 286 285 284 283 283 282 281 281 282 283
309 306 303 302 302 302 302 301 300 299 298 297 295 295 294 294 293 293 293 291 291 293 293 293 291 290 289 289 288 288 288 287 285 284 283 283 282 282 281 280 280 281 281
306 303 303 303 302 300 300 299 298 296 296 295 294 294 293 293 293 293 291 291 291 292 292 291 289 289 289 288 288 287 285 284 283 283 282 282 281 280 280 279 280 280 281
304 302 301 300 299 298 297 296 295 295 295 294 294 293 294 293 293 291 290 291 292 291 290 289 289 289 288 287 286 284 283 282 281 281 280 280 279 279 279 279 280 280 281
302 300 299 298 297 296 296 295 295 294 294 294 294 293 293 292 291 290 290 290 290 289 289 289 288 288 287 286 284 282 281 280 280 279 279 279 279 279 279 279 280 280 281
301 299 298 297 296 296 296 295 294 294 294 294 293 293 292 291 290 290 291 290 290 290 289 289 288 287 286 284 282 280 280 281 280 279 279 279 279 279 280 280 281 281 281
299 298 297 296 296 296 295 294 294 294 293 293 293 292 290 290 289 289 290 290 290 289 289 288 287 285 284 282 281 280 280 280 279 279 279 279 279 280 280 280 280 281 281
298 297 296 296 295 295 294 294 293 293 293 293 292 290 290 290 289 289 289 289 289 289 287 287 286 284 283 282 280 280 280 278 278 278 278 279 279 279 279 279 280 280 281
297 296 296 295 293 293 292 292 292 292 292 292 291 290 290 289 288 288 289 288 288 287 287 285 284 283 282 281 281 280 279 278 278 278 278 277 278 278 278 279 279 279 280
296 295 294 293 292 291 291 291 291 291 291 291 291 290 290 289 287 287 288 287 287 286 285 284 283 282 282 281 280 279 279 278 278 277 277 277 278 278 278 278 278 279 279
295 293 292 291 290 290 290 290 290 290 290 291 290 290 289 288 286 285 286 286 285 285 284 283 283 282 281 281 281 279 278 278 277 277 277 277 277 277 277 278 278 278 278
293 291 290 290 290 290 290 290 289 290 289 289 289 289 288 287 285 285 285 284 284 284 283 283 282 282 281 281 280 278 278 277 277 275 275 277 277 276 276 276 277 277 278
291 290 290 290 290 290 290 289 289 289 289 288 288 288 288 286 285 285 284 284 283 283 283 282 282 282 281 281 280 279 277 277 277 275 275 275 275 275 275 275 276 276 277

GFSMW_850_thetae_030.txt.gz
Theta_e
324 325 325 325 325 325 328 328 327 324 323 322 320 320 320 318 314 314 313 312 311 310 310 310 310 309 306 300 297 296 295 294 294 294 294 293 296 298 295 299 299 295 295
326 328 329 329 329 328 327 325 324 320 318 319 318 316 314 314 314 313 311 311 311 311 311 309 305 301 297 296 295 294 293 293 293 294 294 295 295 296 295 294 294 294 294
327 326 325 324 323 321 319 317 316 316 314 313 313 312 312 312 312 312 311 311 310 307 303 300 297 296 295 294 293 292 292 291 292 293 294 295 295 295 295 294 294 294 294
321 322 321 319 317 315 315 315 314 314 314 314 314 313 313 313 312 312 311 309 303 300 299 300 299 296 296 294 293 292 292 292 292 292 292 293 293 294 293 293 293 292 293
318 318 316 315 315 316 315 315 315 315 315 315 314 314 313 312 311 310 308 303 301 300 299 299 298 297 297 296 295 293 291 291 291 291 291 291 291 292 292 292 293 293 292
316 316 316 316 316 316 316 316 315 315 314 313 313 312 311 309 308 305 301 300 301 300 298 298 298 298 298 297 295 292 291 291 291 290 290 290 290 291 292 292 291 291 291
316 316 317 316 317 316 315 315 315 313 312 311 311 309 308 306 303 302 301 300 300 299 299 298 298 298 298 295 292 292 291 291 290 289 289 289 289 289 290 291 291 290 289
316 317 317 317 316 315 315 314 312 311 310 309 308 306 303 302 301 301 301 300 300 299 299 298 299 298 296 293 294 292 291 290 289 289 289 289 289 289 289 288 287 288 288
317 317 317 316 315 314 312 312 311 309 308 307 304 302 301 302 302 301 300 299 299 299 299 299 298 296 294 294 293 292 290 289 289 289 288 288 288 288 289 288 287 286 286
316 316 314 313 312 312 312 310 308 306 305 302 301 301 301 301 301 300 299 297 297 298 298 298 297 297 295 295 293 291 290 289 288 287 287 287 287 287 287 287 286 286 285
314 313 312 311 312 312 309 308 305 304 303 302 302 300 300 300 299 295 294 293 292 292 292 294 295 295 295 294 292 290 289 288 288 288 288 287 287 287 287 286 285 284 283
311 311 311 311 309 308 308 304 303 303 302 301 300 299 298 296 294 293 293 293 293 292 291 294 295 295 293 292 290 289 289 288 288 288 287 287 287 286 284 283 283 282 282
310 310 310 309 308 305 304 303 302 301 300 299 298 297 295 294 293 293 293 293 292 290 290 293 294 293 293 291 289 289 288 288 288 288 287 286 285 284 283 283 282 282 281
310 310 309 306 304 304 303 301 301 300 299 298 296 294 294 293 293 293 293 292 290 290 291 291 292 292 292 290 289 288 288 288 288 286 285 284 283 283 282 282 281 281 280
310 309 306 303 303 302 301 300 299 298 296 295 294 294 294 293 293 293 291 290 290 291 291 291 291 291 289 289 288 288 288 287 285 284 283 282 282 281 281 280 280 280 280
309 306 303 303 303 300 299 299 297 296 295 294 294 294 293 293 292 291 290 290 290 290 290 290 289 289 289 288 288 287 286 285 283 281 280 280 280 279 279 279 279 279 280
309 305 303 301 300 299 297 296 296 295 294 294 294 293 293 292 291 290 290 290 290 290 289 289 289 288 288 287 286 285 284 282 281 281 280 279 279 279 279 279 280 280 280
306 303 301 300 298 297 296 295 295 294 294 293 293 293 292 291 290 290 289 290 290 289 289 289 288 288 287 286 285 283 282 281 281 280 279 279 279 279 279 280 281 280 280
303 302 299 297 296 296 295 295 294 293 293 293 292 292 291 290 290 290 289 289 290 290 290 289 288 287 286 285 283 282 281 281 281 280 279 279 279 279 279 280 280 280 280
303 300 298 297 296 296 295 293 292 292 292 292 291 291 291 290 290 289 288 289 289 289 289 288 287 286 285 283 282 281 280 280 280 280 279 279 278 278 279 279 279 279 280
299 298 297 296 296 294 292 291 291 291 291 291 290 290 290 290 290 289 288 289 289 288 288 287 286 285 283 282 281 281 280 280 279 278 278 278 277 277 278 278 278 279 279
299 297 296 295 294 292 291 290 290 290 290 290 289 290 290 290 289 288 288 288 288 287 287 286 285 283 282 282 281 280 279 279 279 278 277 277 276 277 278 278 278 278 279
296 296 295 293 291 290 290 290 290 289 289 289 289 290 289 289 288 287 286 286 286 286 285 285 283 283 282 281 281 281 279 279 279 277 276 276 277 277 277 277 278 278 278
295 295 293 291 290 290 290 289 289 289 289 289 288 288 288 288 288 286 285 285 285 284 284 283 283 282 282 281 281 281 279 278 279 278 276 275 277 276 276 276 277 277 277
294 292 290 290 290 289 289 289 289 289 289 289 288 288 288 288 287 286 285 284 284 283 283 283 282 282 282 281 281 280 279 278 279 278 276 276 276 276 276 276 276 276 276
291 290 290 290 290 289 289 289 289 289 289 288 288 287 287 288 287 285 284 284 283 282 282 282 282 282 282 281 281 280 279 278 278 279 277 276 275 275 275 275 275 274 275

GFSMW_850_thetae_033.txt.gz
Theta_e
323 323 324 325 324 325 325 326 327 326 322 322 320 318 318 317 314 314 313 311 310 310 310 309 304 300 298 297 296 296 296 295 294 293 295 295 295 294 294 295 293 293 293
324 326 326 327 326 326 326 326 325 320 320 319 317 315 313 313 313 312 311 311 310 309 306 303 300 299 299 298 297 296 296 294 293 292 296 296 296 297 293 293 294 293 292
327 329 328 324 323 322 319 319 316 315 315 314 313 313 312 312 312 312 311 310 310 307 302 299 297 297 296 296 297 297 297 295 292 291 294 295 295 294 295 294 295 294 294
324 323 321 317 315 315 314 314 314 314 314 314 314 313 313 313 312 311 310 309 305 301 300 298 297 297 297 297 297 297 296 293 293 291 292 292 293 293 292 293 293 293 293
320 318 316 314 315 315 315 315 315 314 314 314 314 313 313 311 310 309 307 302 301 300 299 299 298 297 297 298 298 295 292 292 291 293 292 292 292 292 292 291 291 291 291
317 316 315 315 315 315 315 315 315 315 314 314 312 311 310 309 307 304 301 300 300 300 299 299 298 298 298 298 295 293 293 292 291 290 291 291 291 291 290 290 290 289 290
316 315 315 315 315 316 316 315 315 314 313 311 310 309 307 305 302 301 300 301 300 300 299 299 299 299 299 297 295 293 295 292 291 290 290 289 289 290 290 290 289 289 289
316 315 316 316 316 316 315 315 314 312 310 309 308 306 303 302 301 302 302 301 300 299 298 298 299 299 299 297 296 295 295 292 291 289 289 289 288 288 288 289 289 288 288
316 316 316 316 316 315 315 313 312 309 308 306 304 302 302 301 301 301 300 299 296 295 294 293 292 293 297 296 296 294 293 292 290 289 288 287 287 287 287 288 287 287 287
316 316 316 316 316 314 312 310 307 306 305 303 302 301 301 300 300 298 296 294 293 293 293 292 291 293 294 295 294 293 293 291 289 289 288 288 288 288 287 287 287 286 286
316 316 315 314 312 310 309 306 305 304 303 303 301 300 299 298 296 295 294 293 292 292 292 291 291 293 294 295 294 293 290 289 289 288 288 288 287 287 286 286 285 284 284
314 314 313 311 310 308 306 305 303 304 302 301 300 298 297 296 294 293 293 293 293 291 290 290 290 293 293 294 292 292 289 289 289 288 288 287 286 286 285 284 284 283 283
312 311 310 310 308 307 304 303 304 301 300 299 298 297 296 294 293 293 293 292 291 290 290 290 291 292 291 292 291 290 289 288 288 288 287 286 285 284 284 283 283 283 282
310 310 309 309 307 305 304 304 301 300 299 297 296 295 294 294 293 293 292 290 290 290 290 291 291 291 291 290 289 289 288 288 287 286 285 284 283 282 282 282 282 282 282
310 310 309 307 304 305 304 301 299 298 296 296 294 294 294 293 293 292 290 290 290 290 290 290 290 289 289 289 288 288 287 286 285 284 283 282 281 281 280 280 281 281 281
309 309 307 304 303 303 300 299 297 296 296 294 293 294 293 293 292 290 290 290 290 290 290 289 289 289 288 288 288 287 286 284 283 282 282 281 281 280 280 280 280 280 280
310 308 305 303 301 300 298 297 296 296 294 293 293 293 293 292 291 290 290 290 289 290 290 289 289 288 288 288 287 286 284 283 282 282 281 280 279 279 279 279 280 280 280
309 308 305 302 300 299 297 296 296 294 292 292 293 293 291 291 290 290 290 289 289 290 290 290 289 288 288 287 286 284 283 282 281 281 280 279 279 278 278 279 280 280 280
310 307 303 300 298 297 296 296 294 292 291 292 291 291 290 290 290 290 290 289 289 289 289 289 288 288 287 286 285 283 282 282 281 281 279 278 278 278 278 279 279 279 280
308 303 300 298 296 296 296 294 292 291 290 290 290 290 290 290 290 290 289 288 288 289 289 289 288 287 286 285 283 282 282 281 280 279 279 278 278 277 278 278 278 278 279
304 300 297 296 296 296 294 292 290 290 290 290 289 289 289 290 290 289 289 288 287 288 288 288 287 286 285 284 283 282 281 280 279 278 278 277 278 277 277 277 277 278 278
299 297 298 296 296 294 291 290 290 290 290 289 289 289 289 289 289 289 288 287 286 287 286 286 285 285 284 283 282 282 281 279 279 278 278 276 276 278 277 276 277 278 278
302 299 296 295 293 291 290 290 289 289 289 289 289 289 288 288 288 288 288 287 285 286 285 285 284 283 283 283 282 281 281 280 278 278 278 276 276 276 276 276 276 277 277
296 297 296 293 290 290 290 289 289 289 289 289 289 289 288 287 288 287 287 286 285 285 284 284 283 283 283 282 282 281 281 280 279 278 278 276 276 275 276 276 276 275 276
297 295 292 290 290 290 289 289 289 289 289 289 289 288 288 287 287 287 287 286 285 284 283 283 282 283 282 282 282 281 280 279 279 278 279 278 276 276 276 275 275 274 275
294 291 290 290 290 289 289 289 289 289 289 289 288 288 287 287 287 286 286 285 284 283 283 282 282 282 282 282 281 281 280 280 279 278 278 278 277 276 275 275 275 275 274

GFSMW_850_thetae_036.txt.gz
Theta_e
324 325 323 323 326 326 324 324 325 326 324 318 321 322 320 318 317 314 313 312 310 310 309 305 303 301 301 297 297 299 299 299 300 299 298 298 300 301 300 299 298 298 298
325 326 326 325 325 325 325 323 324 320 320 320 319 317 316 314 313 313 312 310 310 309 305 302 301 300 300 301 300 300 299 299 299 299 297 298 298 298 299 297 298 297 297
327 328 329 330 328 326 325 322 322 319 315 315 314 313 313 312 312 311 310 310 308 303 302 300 299 299 301 300 300 300 299 298 298 298 297 297 297 296 296 296 296 296 296
328 329 328 328 327 322 318 323 320 318 314 313 314 313 314 314 313 311 310 307 304 302 300 298 299 300 301 301 300 299 299 298 297 297 296 296 296 295 295 295 295 294 293
327 325 322 322 322 322 322 320 318 317 314 313 315 315 314 313 311 310 307 306 304 300 300 301 301 301 301 301 300 299 299 298 297 297 295 295 294 294 294 293 293 293 293
323 320 318 317 317 317 317 316 315 315 314 314 314 313 312 311 309 307 305 304 303 303 302 302 302 301 301 301 300 299 298 297 297 296 295 294 294 293 293 293 292 292 292
320 318 317 317 316 316 316 316 316 315 314 313 311 311 309 307 306 305 303 303 302 302 302 302 301 300 299 299 298 298 297 297 296 295 295 294 293 293 292 291 291 291 291
319 318 317 317 317 317 317 316 316 314 312 310 309 308 305 305 304 303 303 303 302 301 299 298 297 297 296 297 297 297 297 296 295 295 294 293 292 292 291 291 290 290 290
319 318 318 318 317 317 316 316 314 312 309 307 305 303 302 301 301 300 300 299 298 297 296 296 295 295 295 296 296 296 296 295 294 294 293 292 291 291 290 290 290 289 289
319 319 318 318 317 316 315 314 311 308 308 307 303 302 301 300 299 298 297 297 296 295 295 294 294 294 295 295 296 295 295 295 293 293 292 291 291 290 289 289 289 288 288
319 319 318 317 315 313 312 311 307 308 306 303 302 300 299 299 297 296 296 295 295 294 293 294 294 294 295 295 294 294 294 293 292 292 291 290 290 289 288 288 288 287 287
319 318 316 314 312 310 309 307 306 305 303 301 300 299 298 297 297 296 295 295 294 293 294 294 294 294 294 294 293 292 292 291 291 291 290 289 289 288 288 287 287 286 286
317 316 314 312 310 308 308 305 305 303 301 300 299 298 298 297 296 295 294 294 293 293 294 293 293 293 292 292 291 291 291 290 289 289 288 288 287 287 286 286 285 285 284
315 314 312 311 308 307 305 305 307 301 300 299 298 298 297 294 295 294 294 293 292 292 293 292 292 291 291 291 290 289 289 289 288 287 286 286 285 284 284 283 284 283 283
314 313 312 310 307 305 305 306 302 300 299 297 297 296 294 294 295 294 293 292 291 292 292 292 291 291 290 289 289 288 288 288 286 285 284 284 283 282 281 281 282 282 282
313 312 311 309 307 305 305 302 300 298 297 297 296 294 293 293 294 293 292 292 293 292 292 292 291 290 289 288 288 287 287 286 285 284 283 283 282 282 281 280 280 280 281
313 312 310 308 306 304 301 300 298 297 296 295 293 293 293 293 293 292 292 292 292 292 292 291 291 290 289 288 288 287 286 284 284 283 283 282 282 282 281 280 280 281 281
312 311 309 306 305 301 300 298 297 296 295 292 293 293 293 292 292 292 292 292 291 291 291 290 290 289 288 288 287 286 284 284 283 283 282 282 282 281 279 279 280 281 281
312 310 308 304 300 301 298 297 297 295 292 293 293 293 293 292 292 292 292 291 291 291 291 290 289 288 288 287 286 285 284 284 283 282 282 281 280 280 278 278 279 280 281
311 307 303 301 299 297 299 297 295 293 293 291 292 292 292 292 292 291 291 290 290 290 289 290 288 287 287 286 285 284 283 282 283 282 282 281 279 278 278 278 278 279 280
306 303 302 298 297 299 298 295 294 293 292 290 291 291 291 291 291 291 290 290 289 289 289 288 287 286 286 285 284 283 282 282 282 282 281 281 278 277 278 277 277 277 277
301 299 296 297 300 297 294 293 292 292 290 290 291 290 291 290 290 290 290 290 289 288 288 287 286 286 285 284 283 283 282 282 281 280 280 279 277 277 276 277 276 276 277
297 297 299 302 297 294 291 290 292 290 289 289 289 291 291 290 290 290 289 289 289 288 287 287 286 286 285 284 284 283 282 282 281 280 279 279 278 277 277 276 276 276 277
298 300 299 295 293 291 290 290 289 289 289 289 290 291 290 290 289 289 289 288 288 287 286 286 285 285 284 284 283 283 282 281 280 280 279 279 279 278 277 277 277 276 275
300 298 295 293 290 290 290 289 289 289 289 289 290 290 290 290 289 289 288 288 287 286 286 285 284 284 284 284 283 282 282 281 280 280 279 279 279 278 278 278 277 277 276
297 294 291 291 290 290 289 289 289 289 289 289 289 290 290 289 289 289 288 287 286 285 285 284 283 282 283 282 282 282 282 281 281 280 280 280 279 278 278 277 277 277 276

GFSMW_850_thetae_039.txt.gz
Theta_e
326 327 328 327 327 331 330 329 328 326 325 324 321 316 319 321 318 316 314 313 312 310 309 307 306 305 304 303 303 303 302 302 301 301 301 300 300 301 301 301 301 300 299
328 328 330 330 329 332 329 327 326 325 325 320 321 322 319 317 315 313 313 313 310 308 306 307 306 305 303 303 303 303 302 302 300 300 300 300 299 300 300 299 299 298 298
328 329 331 331 331 330 329 331 326 326 325 324 320 318 317 315 314 313 313 311 309 307 306 305 304 303 303 303 303 302 302 301 300 299 299 299 299 298 298 297 297 297 297
328 330 331 332 331 331 331 328 326 324 322 319 318 317 316 316 315 314 313 311 309 307 306 304 304 304 303 303 302 302 301 301 300 299 298 298 298 297 296 296 296 295 295
330 331 332 332 331 328 327 326 325 322 319 318 317 317 317 317 315 314 313 310 308 306 305 305 304 304 303 302 302 302 301 300 300 299 298 297 297 296 296 296 295 294 294
330 328 328 327 325 326 325 323 321 319 318 317 318 317 316 314 313 312 309 307 305 304 304 304 304 303 301 301 300 300 299 300 299 299 297 297 296 295 295 294 294 293 293
327 325 324 323 322 323 322 320 319 318 317 318 317 315 314 311 309 308 307 305 304 304 303 303 301 299 298 298 298 298 298 299 299 298 297 296 296 295 294 293 293 293 292
325 322 320 320 320 320 320 319 318 318 318 316 314 312 309 308 307 306 305 303 303 301 300 298 298 297 297 297 297 297 297 298 298 297 296 295 295 294 294 293 292 292 291
324 321 320 320 320 320 320 319 319 317 315 313 310 309 308 307 305 304 302 301 300 299 297 297 296 296 296 296 296 296 297 297 297 296 295 295 294 293 293 292 291 291 291
323 321 320 320 320 320 320 319 318 315 312 310 309 306 306 305 303 301 300 300 298 297 297 296 295 296 296 296 296 297 296 296 295 295 294 293 293 292 292 291 290 290 290
322 321 321 321 320 320 319 318 315 312 310 308 305 303 304 302 301 300 299 298 297 296 295 295 295 295 295 296 294 295 295 294 294 293 293 292 292 291 291 290 289 289 289
322 322 321 321 320 318 317 315 311 309 307 306 308 304 302 301 300 299 298 297 296 295 295 295 295 295 294 294 294 293 292 292 292 292 291 290 290 290 289 288 288 288 287
322 322 321 320 319 316 315 312 309 307 309 308 304 302 301 300 299 298 297 297 296 295 295 295 295 294 293 293 292 292 292 291 291 290 290 289 288 288 287 287 286 286 286
322 322 321 319 317 315 312 310 306 310 307 304 302 301 300 300 298 297 297 296 295 295 295 294 294 293 293 292 292 291 291 290 289 289 288 287 286 286 285 284 284 284 284
321 320 319 318 316 313 310 307 307 306 303 302 300 300 299 298 297 297 296 295 295 295 294 294 293 293 292 291 290 289 289 288 288 288 287 286 285 284 283 282 282 282 282
319 318 317 316 314 311 309 308 306 304 302 300 300 298 297 297 296 296 295 294 294 294 294 294 293 292 291 290 289 288 288 287 287 287 286 285 285 284 283 283 282 281 281
318 318 317 316 313 310 308 306 303 301 300 299 298 297 297 296 295 294 294 294 294 294 293 293 292 292 291 290 289 288 287 286 286 286 285 285 284 284 283 282 281 281 281
317 317 316 314 312 310 306 302 302 300 299 298 296 296 296 295 294 294 294 294 294 293 293 293 292 291 291 290 289 287 286 286 286 286 285 284 284 283 282 280 280 281 281
316 316 315 313 310 306 302 301 300 298 298 296 295 295 294 294 294 294 294 294 293 292 292 292 291 291 291 289 288 287 286 285 285 285 284 284 283 282 280 278 279 280 280
315 315 313 310 306 302 300 300 299 298 296 295 294 294 293 293 293 293 293 293 292 292 291 291 290 290 289 288 287 286 285 284 284 284 284 283 283 282 278 277 278 279 280
314 313 309 305 303 301 299 300 298 296 294 294 294 293 293 293 292 292 292 292 292 291 290 289 289 289 288 287 286 285 284 283 283 283 283 283 282 280 278 277 277 278 276
311 306 303 301 298 299 298 297 296 294 294 293 293 293 292 292 292 292 292 292 292 291 290 289 288 287 286 286 285 284 284 283 282 282 282 282 280 280 278 278 277 277 278
303 301 299 299 297 296 295 293 293 293 292 291 290 292 292 292 292 292 291 291 290 290 290 289 288 287 287 287 286 285 284 283 283 281 281 281 280 280 280 279 279 278 279
301 300 298 298 296 295 292 292 293 290 290 290 291 292 292 292 292 291 291 291 289 289 289 288 287 287 286 286 286 285 284 283 282 282 282 281 281 281 280 280 280 279 279
298 298 296 295 294 293 293 291 290 290 290 291 291 291 291 292 292 291 291 290 289 288 288 287 287 286 286 285 285 284 284 283 282 282 281 281 282 281 281 281 280 280 279
296 294 294 293 294 292 291 290 290 290 289 289 290 291 291 291 291 290 289 289 288 288 287 286 286 285 284 283 283 283 283 282 282 282 281 282 282 281 281 281 280 280 279

GFSMW_850_thetae_042.txt.gz
Theta_e
322 323 324 324 327 332 331 329 328 324 324 323 324 323 321 317 319 320 316 314 313 312 310 308 308 306 306 304 303 303 303 302 302 301 300 300 300 300 300 300 300 299 299
323 327 327 327 329 331 332 330 328 327 325 324 324 319 321 320 318 316 314 313 312 310 308 308 307 306 303 301 303 303 302 302 302 301 300 300 299 300 299 298 297 297 297
327 328 329 329 328 332 332 329 328 326 325 324 323 321 317 316 315 314 313 313 311 309 308 306 305 304 303 304 303 303 302 302 301 299 301 300 299 298 298 297 296 296 296
329 329 330 331 331 333 331 328 327 324 326 324 320 318 317 316 315 315 314 313 312 310 308 306 305 304 304 303 302 302 301 301 301 300 300 299 299 298 297 296 295 295 295
328 329 331 331 331 330 329 329 327 326 324 318 318 317 317 316 316 315 314 313 310 309 306 305 305 304 304 303 302 301 301 301 300 300 300 299 298 297 297 296 296 295 294
328 330 331 332 330 330 329 328 325 325 321 319 318 317 318 316 315 314 313 310 308 306 304 304 304 304 304 300 299 298 298 297 298 299 298 299 297 297 296 296 295 294 293
330 331 331 331 330 328 327 327 324 321 320 318 318 318 317 315 313 311 310 309 306 305 304 303 303 300 298 298 297 297 297 297 297 298 298 298 297 296 295 295 294 293 293
330 328 329 327 326 326 325 323 322 320 319 318 318 317 314 312 309 309 308 306 304 303 302 300 298 297 297 296 296 296 296 296 298 298 297 297 296 295 294 294 293 292 291
327 326 325 324 324 323 322 320 320 319 318 318 316 314 310 309 308 306 306 303 302 300 299 297 296 295 295 296 296 296 296 297 297 296 296 295 295 294 293 293 292 291 291
326 324 322 321 321 321 321 320 320 319 317 316 314 311 309 307 306 305 302 301 300 299 297 296 295 295 296 296 296 296 296 295 295 294 294 294 293 293 291 290 291 291 290
325 324 321 321 321 321 321 321 320 317 315 313 311 308 307 305 303 302 301 300 298 297 297 295 295 296 296 296 295 294 293 293 293 293 292 292 291 291 291 290 289 289 288
325 323 322 321 321 321 321 320 319 316 313 310 308 307 305 303 302 301 300 298 298 297 296 295 295 295 295 294 292 292 292 291 291 291 291 291 290 289 289 288 288 287 287
325 323 322 322 322 321 320 319 317 314 311 308 308 305 303 302 301 300 299 298 297 296 295 295 295 295 294 293 292 291 292 292 291 290 290 289 288 288 287 286 286 285 284
323 323 323 322 322 321 319 317 314 311 308 308 304 303 302 301 301 300 298 298 297 295 295 295 295 295 294 292 292 292 291 290 289 289 288 288 287 286 286 285 284 283 282
322 322 323 322 322 320 318 315 312 309 307 305 303 303 301 300 300 298 297 296 296 295 295 295 295 294 293 292 292 291 290 288 288 287 287 287 286 286 285 284 283 283 282
319 321 321 321 321 319 316 313 310 307 306 304 302 301 300 299 298 297 297 296 295 294 294 294 294 294 292 292 292 291 290 289 287 286 287 286 285 285 284 284 283 283 281
317 320 320 319 319 317 314 311 308 307 304 302 301 300 299 298 297 296 295 295 294 294 294 293 293 294 292 291 291 291 290 288 286 286 286 286 285 285 284 283 283 280 280
316 317 318 318 317 315 312 310 308 304 301 301 299 298 297 296 296 295 294 294 294 294 293 293 293 293 292 291 291 290 289 288 286 286 286 285 284 284 283 282 281 278 280
315 316 317 317 316 313 310 308 303 302 300 298 298 296 295 295 294 294 294 294 294 294 293 292 292 292 291 291 291 289 288 287 285 285 284 285 284 283 283 282 280 278 278
315 315 316 315 313 310 305 302 301 299 299 296 295 296 295 294 293 293 293 293 293 293 292 292 291 291 290 290 289 288 286 286 285 284 284 284 284 283 283 281 279 278 278
315 315 314 311 307 304 302 300 300 298 296 294 295 294 293 293 293 292 292 292 292 292 292 291 291 290 288 288 288 287 286 285 284 283 283 283 283 283 281 280 279 278 278
311 309 305 303 301 300 299 298 296 295 295 294 293 293 292 292 292 292 292 292 292 292 291 291 291 289 288 287 287 286 286 285 284 283 283 282 282 281 281 281 280 280 279
305 303 301 299 297 297 298 297 294 294 294 293 292 290 290 292 292 292 292 292 291 291 290 290 289 289 288 287 287 287 286 285 284 283 283 282 282 281 281 281 280 280 280
301 300 299 298 298 298 293 294 294 293 292 292 290 291 292 292 292 291 292 292 291 291 290 289 288 288 287 287 286 286 285 286 284 283 282 282 281 282 281 281 281 280 280
299 298 297 295 294 294 295 294 293 293 291 290 290 290 290 290 291 292 292 291 291 290 289 289 288 287 287 287 286 285 285 285 284 284 283 282 282 282 282 281 281 280 280
298 298 299 298 296 294 293 292 292 290 290 290 289 289 290 290 290 290 290 289 289 289 288 288 288 287 286 286 285 284 283 284 283 283 282 282 282 282 282 281 281 281 280